Vertical_Velocity
-2 0 2 1 0 2 -0 -2 -4 -0 -1 -2 -2 -0 1 -3 1 -4 0 -0 4 0 -3 -3 -4 -1 -2 -2 -2 -0 -1 -2 -1
2 -2 3 1 -2 -0 -0 -0 -2 -1 -0 -2 -2 0 -1 -1 -2 -1 -1 -4 -3 1 0 1 0 0 -0 -1 -1 -1 -1 0 -0
2 -0 -0 -0 -0 -2 -3 -1 -3 -1 -0 -0 -1 -0 0 -2 -5 0 -0 -1 -2 -1 -0 -1 -3 -2 -2 -0 0 -0 -1 -0 -0
-2 -2 -2 -2 -1 -0 -1 -1 -0 -0 -0 -0 -1 -1 -2 -3 -2 -1 -1 -1 -1 -0 -1 -1 2 -1 -4 -2 0 1 1 -0 -3
-1 -1 -3 -0 -1 -1 -1 -3 -4 -1 -2 -2 -3 -2 -2 -2 -2 -2 -1 -2 -1 -1 -1 0 0 -1 -1 -3 -3 -4 -1 -1 0
0 0 1 -0 0 -2 0 -3 -3 -2 -1 -0 -0 -0 -1 -0 -1 -2 -3 -1 -1 -2 -1 -1 -1 -2 1 2 -2 -1 -2 -2 -2
-0 -1 -1 -1 -1 -0 -0 0 1 -1 0 3 -2 -1 2 1 0 -1 -1 -0 -1 -1 -2 -2 -2 -4 -4 -3 2 -1 -1 -0 0
-2 -1 -2 -1 -3 0 -2 -0 -4 -0 -0 -1 1 -0 -1 -1 -1 -1 -0 0 -0 0 1 0 -0 -1 -1 -1 -1 1 0 -1 -1
-1 -0 0 2 1 2 1 1 1 1 -0 1 0 -0 -2 -2 -1 -2 -3 2 -0 -1 -1 -2 -2 -1 0 0 -2 -4 -2 -0 -1
-0 1 4 -1 0 1 -0 -2 -1 -1 -2 -1 -3 -2 -2 -1 -2 -4 -2 -2 2 -1 -2 -1 -2 -3 -2 -2 -1 0 1 1 2
1 1 -3 -0 -2 -1 -1 -1 -1 -1 1 -0 0 -0 1 0 0 -1 -2 -4 -1 3 0 -1 -3 -2 -2 -1 -1 -2 -2 -3 0
-2 -1 -0 -1 1 3 1 -1 -1 0 2 -1 2 2 1 1 -0 1 1 1 -5 -1 3 2 1 2 2 1 0 -1 -3 -3 -1
-0 0 1 3 2 -0 -0 1 0 0 0 -1 -1 -3 -2 -1 -1 -1 1 -0 1 -0 -4 2 5 4 2 1 2 2 2 2 1
2 2 2 -1 1 1 -1 0 -1 -1 0 -1 -2 -1 -3 -2 0 1 1 1 1 0 -1 -1 -1 0 3 4 3 -0 5 1 1
2 2 1 1 1 2 1 -1 0 0 2 -2 -2 -4 -3 -2 1 -0 1 1 -0 2 3 1 -0 -6 -2 1 3 2 0 -0 8
-0 -0 -0 -0 0 -2 -4 -4 -4 -4 -1 -4 -3 -9 -7 4 0 13 -4 -6 -3 -1 2 4 2 4 -1 -3 -1 3 2 3 -1
-2 -3 -3 -4 -3 -1 0 0 -3 -2 -0 2 1 -4 -24 5 -3 -10 -5 4 -3 -2 4 3 -1 2 -1 6 -2 -2 2 2 3
-2 -1 -0 -1 -1 -3 -4 -3 -2 -4 -6 2 10 -6 -2 -7 -13 -8 -10 12 4 -14 -7 2 5 1 1 -4 -1 -0 -3 4 5
-2 -2 -1 -1 -1 -1 -0 1 0 2 -1 -7 -4 -1 11 7 -18 -7 -18 2 -0 -9 -6 0 -4 -9 -14 3 9 4 1 3 6
-1 -2 -2 -1 -1 -1 -3 -3 -2 0 0 1 -2 -6 -7 -3 8 -8 -13 -10 -2 -4 -6 -7 -0 7 -5 -21 -6 17 8 1 3
Height
1509 1508 1507 1506 1505 1504 1503 1503 1503 1503 1502 1502 1502 1502 1501 1499 1500 1499 1498 1496 1497 1496 1495 1496 1496 1496 1496 1496 1495 1495 1495 1494 1494
1509 1507 1507 1506 1504 1503 1502 1502 1502 1501 1500 1500 1499 1499 1498 1497 1497 1497 1495 1494 1494 1493 1493 1494 1493 1493 1493 1493 1493 1493 1492 1492 1492
1508 1507 1506 1505 1504 1502 1502 1501 1501 1500 1499 1498 1497 1496 1495 1494 1493 1495 1492 1490 1490 1490 1491 1491 1491 1490 1490 1490 1490 1490 1489 1489 1489
1507 1505 1505 1504 1503 1501 1501 1501 1501 1500 1499 1497 1495 1494 1492 1491 1492 1492 1490 1488 1487 1487 1487 1487 1488 1488 1488 1488 1487 1487 1486 1486 1486
1505 1504 1503 1503 1501 1500 1499 1499 1499 1498 1497 1495 1493 1491 1490 1488 1488 1488 1486 1483 1484 1483 1483 1482 1483 1484 1485 1484 1483 1483 1483 1483 1483
1503 1502 1502 1501 1500 1499 1498 1497 1496 1495 1494 1492 1490 1489 1487 1487 1485 1483 1481 1480 1479 1479 1479 1478 1478 1479 1480 1480 1479 1478 1478 1478 1478
1502 1501 1500 1499 1498 1497 1496 1495 1494 1493 1491 1491 1488 1486 1486 1484 1481 1478 1477 1476 1475 1474 1474 1473 1473 1473 1473 1474 1474 1473 1472 1473 1472
1500 1499 1498 1497 1496 1495 1494 1492 1491 1490 1489 1488 1487 1485 1483 1480 1477 1474 1472 1471 1470 1469 1468 1467 1467 1466 1466 1466 1467 1467 1467 1467 1467
1499 1498 1497 1495 1494 1493 1491 1490 1489 1487 1485 1484 1482 1481 1479 1476 1473 1470 1466 1466 1465 1463 1462 1460 1460 1459 1459 1458 1459 1460 1460 1460 1460
1497 1496 1495 1493 1492 1491 1489 1487 1486 1483 1482 1480 1478 1475 1472 1469 1466 1463 1460 1458 1458 1456 1454 1453 1452 1451 1450 1450 1449 1450 1451 1452 1452
1494 1493 1492 1491 1490 1488 1486 1484 1482 1479 1477 1474 1472 1469 1467 1463 1460 1457 1454 1450 1449 1448 1447 1445 1444 1442 1441 1441 1440 1441 1442 1443 1444
1491 1491 1490 1488 1487 1484 1482 1480 1477 1475 1472 1469 1467 1465 1462 1458 1455 1452 1448 1445 1441 1439 1438 1437 1435 1434 1432 1431 1430 1429 1429 1429 1430
1489 1487 1486 1484 1482 1480 1478 1476 1474 1471 1468 1465 1462 1458 1455 1451 1448 1445 1442 1439 1435 1432 1429 1429 1428 1426 1424 1422 1421 1420 1419 1419 1420
1486 1485 1483 1481 1479 1477 1475 1472 1469 1466 1463 1459 1455 1452 1447 1444 1441 1438 1435 1432 1429 1425 1423 1420 1418 1417 1415 1413 1411 1410 1409 1409 1408
1484 1482 1481 1479 1477 1475 1472 1470 1467 1465 1461 1456 1452 1447 1443 1439 1436 1434 1431 1428 1425 1421 1418 1414 1410 1406 1405 1404 1402 1400 1398 1397 1397
1483 1481 1480 1478 1475 1473 1470 1468 1464 1461 1458 1452 1446 1441 1436 1434 1432 1428 1425 1423 1420 1416 1413 1410 1406 1402 1397 1393 1392 1390 1388 1386 1385
1482 1481 1479 1477 1474 1471 1468 1464 1459 1456 1453 1449 1442 1433 1430 1430 1425 1421 1417 1414 1411 1408 1405 1403 1400 1396 1392 1388 1384 1381 1379 1377 1374
1482 1480 1477 1474 1471 1467 1463 1460 1456 1452 1449 1448 1444 1433 1427 1421 1420 1415 1411 1408 1404 1400 1398 1394 1391 1388 1384 1380 1376 1372 1369 1367 1364
1481 1478 1474 1471 1467 1464 1460 1457 1453 1450 1446 1442 1440 1436 1430 1422 1406 1409 1406 1403 1398 1394 1389 1386 1382 1378 1374 1371 1367 1363 1360 1357 1353
1478 1474 1470 1467 1464 1460 1457 1453 1450 1446 1443 1439 1434 1430 1426 1421 1414 1394 1398 1396 1393 1388 1383 1378 1374 1370 1365 1363 1359 1354 1348 1345 1342